Location: Eastchurch
(51.4000°N, 0.8667°E)
Time: 09:40:44
(UTC+00:00)

Resurs 01 Rocket - Pass Details

Date: 19 January 2026
Orbit: 628 x 635 km, 97.7° (Epoch: 19 February)

Event Time Altitude Azimuth Distance (km) Brightness Sun altitude
Rises 18:01:02 0° 141° (SE) 2,907 4.8 -14.7°
Reaches altitude 10° 18:03:20 10° 133° (SE) 2,004 3.9 -15.1°
Maximum altitude 18:07:20 36° 67° (ENE) 997 2.1 -15.7°
Drops below altitude 10° 18:11:21 10° 0° (N) 2,021 4.1 -16.3°
Sets 18:13:41 0° 353° (N) 2,934 5.0 -16.6°
